KF0RY-10 Weather Reports


Display with metric or nautical units.
time (UTC)temp
F
wind
direction
speed
MPH
gust
MPH
rain 1hr
in
rain 24hr
in
rain mn
in
humidity
%
barometer
mb
20260901103545 57 277 1.0 2.0 0.00 0.00 0.00 82 1008.4
20260901103020 57 277 1.0 2.0 0.00 0.00 0.00 83 1008.4
20260901102516 57 279 1.0 2.0 0.00 0.00 0.00 83 1008.4
20260901102037 57 289 0.0 2.0 0.00 0.00 0.00 83 1008.4
20260901101517 57 275 0.0 2.0 0.00 0.00 0.00 83 1008.4
20260901101039 57 293 0.0 1.0 0.00 0.00 0.00 82 1008.3
20260901100519 57 277 0.0 1.0 0.00 0.00 0.00 82 1008.2
20260901100016 57 286 0.0 1.0 0.00 0.00 0.00 82 1008.1
20260901095517 57 300 0.0 1.0 0.00 0.00 0.00 82 1008.1
20260901095017 57 302 0.0 2.0 0.00 0.00 0.00 82 1008.0
20260901094523 57 292 1.0 2.0 0.00 0.00 0.00 81 1008.1
20260901094018 58 292 0.0 2.0 0.00 0.00 0.00 81 1008.1
20260901093519 58 296 0.0 1.0 0.00 0.00 0.00 81 1008.1
20260901093017 58 302 0.0 1.0 0.00 0.00 0.00 81 1008.1
20260901092517 58 294 0.0 2.0 0.00 0.00 0.00 81 1008.1
20260901092019 58 296 0.0 2.0 0.00 0.00 0.00 80 1008.1
20260901091521 58 272 0.0 1.0 0.00 0.00 0.00 81 1008.1
20260901091020 58 274 0.0 2.0 0.00 0.00 0.00 80 1008.2
20260901090517 58 280 1.0 2.0 0.00 0.00 0.00 80 1008.1
20260901090019 58 291 0.0 2.0 0.00 0.00 0.00 79 1008.1
20260901085521 58 284 0.0 2.0 0.00 0.00 0.00 79 1008.1
20260901085038 59 300 0.0 2.0 0.00 0.00 0.00 78 1008.1
20260901084517 59 300 0.0 1.0 0.00 0.00 0.00 78 1008.1
20260901084021 59 286 0.0 1.0 0.00 0.00 0.00 78 1008.1
20260901083538 59 306 0.0 2.0 0.00 0.00 0.00 78 1008.0
20260901083021 59 299 0.0 1.0 0.00 0.00 0.00 77 1008.0
20260901082518 59 280 0.0 1.0 0.00 0.00 0.00 77 1008.0
20260901082018 59 276 1.0 2.0 0.00 0.00 0.00 77 1008.0
20260901081538 59 267 1.0 2.0 0.00 0.00 0.00 77 1008.0
20260901081019 59 281 1.0 2.0 0.00 0.00 0.00 77 1007.9
20260901080518 60 295 1.0 2.0 0.00 0.00 0.00 77 1007.9
20260901080021 60 293 1.0 2.0 0.00 0.00 0.00 75 1007.9
20260901075519 60 295 1.0 2.0 0.00 0.00 0.00 75 1007.9
20260901075022 60 295 1.0 2.0 0.00 0.00 0.00 75 1008.0
20260901074538 60 300 0.0 1.0 0.00 0.00 0.00 75 1008.0
20260901074016 60 301 0.0 1.0 0.00 0.00 0.00 75 1007.9
20260901073518 60 287 0.0 2.0 0.00 0.00 0.00 76 1007.9
20260901073018 60 297 1.0 2.0 0.00 0.00 0.00 76 1007.9
20260901072515 60 294 0.0 1.0 0.00 0.00 0.00 76 1007.9
20260901072019 60 280 1.0 1.0 0.00 0.00 0.00 77 1007.9
20260901071515 61 299 0.0 1.0 0.00 0.00 0.00 77 1007.9
20260901071016 60 287 0.0 2.0 0.00 0.00 0.00 77 1007.9
20260901070516 61 291 1.0 2.0 0.00 0.00 0.00 78 1007.9
20260901070016 61 292 1.0 2.0 0.00 0.00 0.00 77 1007.9
20260901065557 61 276 1.0 2.0 0.00 0.00 0.00 77 1007.8
20260901065016 61 296 0.0 1.0 0.00 0.00 0.00 77 1007.9
20260901064516 61 287 1.0 2.0 0.00 0.00 0.00 77 1007.9
20260901064017 61 291 1.0 2.0 0.00 0.00 0.00 76 1007.9
20260901063516 62 293 1.0 2.0 0.00 0.00 0.00 75 1007.9
20260901063022 62 284 1.0 2.0 0.00 0.00 0.00 75 1007.9
20260901062517 62 283 1.0 2.0 0.00 0.00 0.00 74 1007.9
20260901062017 62 295 1.0 2.0 0.00 0.00 0.00 74 1007.9
20260901061517 62 283 1.0 2.0 0.00 0.00 0.00 73 1008.0
20260901061017 62 293 1.0 2.0 0.00 0.00 0.00 74 1008.0
20260901060538 62 291 1.0 2.0 0.00 0.00 0.00 74 1008.0
20260901060017 63 274 1.0 2.0 0.00 0.00 0.00 73 1008.0
20260901055520 63 288 1.0 2.0 0.00 0.00 0.00 73 1007.9
20260901055017 63 302 0.0 1.0 0.00 0.00 0.00 74 1008.1
20260901054520 63 283 1.0 2.0 0.00 0.00 0.00 73 1008.2
20260901054018 63 290 0.0 1.0 0.00 0.00 0.00 73 1008.2
20260901053541 64 286 1.0 2.0 0.00 0.00 0.00 72 1008.2
20260901053017 64 288 1.0 2.0 0.00 0.00 0.00 71 1008.2
20260901052518 64 275 1.0 2.0 0.00 0.00 0.00 71 1008.1
20260901052017 64 272 1.0 2.0 0.00 0.00 0.00 70 1008.1
20260901051521 64 273 1.0 2.0 0.00 0.00 0.00 70 1008.1
20260901051018 64 282 1.0 2.0 0.00 0.00 0.00 70 1008.1
20260901050538 64 281 1.0 3.0 0.00 0.00 0.00 69 1008.2
20260901050018 64 285 1.0 2.0 0.00 0.00 0.00 69 1008.2
20260901045518 64 281 2.0 2.0 0.00 0.00 0.00 69 1008.3
20260901045019 64 289 1.0 2.0 0.00 0.00 0.00 70 1008.2
20260901044518 64 295 1.0 2.0 0.00 0.00 0.00 69 1008.2
20260901044018 64 293 1.0 2.0 0.00 0.00 0.00 69 1008.3
20260901043518 65 286 1.0 2.0 0.00 0.00 0.00 69 1008.3
20260901043039 65 266 1.0 2.0 0.00 0.00 0.00 68 1008.2
20260901042518 65 292 0.0 2.0 0.00 0.00 0.00 68 1008.1
20260901042022 65 294 0.0 2.0 0.00 0.00 0.00 68 1008.1
20260901041518 65 292 0.0 1.0 0.00 0.00 0.00 68 1008.1
20260901041019 65 306 0.0 1.0 0.00 0.00 0.00 67 1008.1
20260901040523 65 285 0.0 1.0 0.00 0.00 0.00 67 1008.1
20260901040039 65 290 0.0 1.0 0.00 0.00 0.00 66 1008.0
20260901035518 65 281 0.0 1.0 0.00 0.00 0.00 66 1008.0
20260901035016 66 354 0.0 2.0 0.00 0.00 0.00 66 1007.9
20260901034516 66 318 0.0 2.0 0.00 0.00 0.00 66 1007.9
20260901034016 66 290 0.0 2.0 0.00 0.00 0.00 66 1007.9
20260901033537 66 308 0.0 2.0 0.00 0.00 0.00 66 1007.8
20260901033019 66 301 0.0 2.0 0.00 0.00 0.00 67 1007.7
20260901032516 66 296 0.0 2.0 0.00 0.00 0.00 67 1007.7
20260901032017 66 296 1.0 2.0 0.00 0.00 0.00 66 1007.7
20260901031517 66 297 0.0 2.0 0.00 0.00 0.00 66 1007.6
20260901031017 66 283 0.0 2.0 0.00 0.00 0.00 66 1007.6
20260901030522 67 327 1.0 2.0 0.00 0.00 0.00 66 1007.5
20260901030037 67 337 0.0 1.0 0.00 0.00 0.00 66 1007.5
20260901025517 67 0.0 0.0 0.00 0.00 0.00 66 1007.5
20260901025017 67 337 0.0 1.0 0.00 0.00 0.00 65 1007.5
20260901024517 68 329 0.0 1.0 0.00 0.00 0.00 64 1007.5
20260901024038 68 279 0.0 1.0 0.00 0.00 0.00 64 1007.5
20260901023520 68 323 0.0 2.0 0.00 0.00 0.00 63 1007.5
20260901023037 69 272 0.0 1.0 0.00 0.00 0.00 63 1007.6
20260901022537 69 296 0.0 1.0 0.00 0.00 0.00 62 1007.6
20260901022021 69 276 0.0 2.0 0.00 0.00 0.00 62 1007.6
20260901021518 69 286 0.0 2.0 0.00 0.00 0.00 62 1007.6
20260901021018 69 293 0.0 2.0 0.00 0.00 0.00 62 1007.6
20260901020517 69 327 1.0 2.0 0.00 0.00 0.00 61 1007.7
20260901020018 70 298 1.0 4.0 0.00 0.00 0.00 60 1007.6
20260901015517 70 307 1.0 4.0 0.00 0.00 0.00 60 1007.6
20260901015018 70 287 2.0 4.0 0.00 0.00 0.00 60 1007.7
20260901014518 70 291 1.0 3.0 0.00 0.00 0.00 59 1007.7
20260901014018 71 293 2.0 4.0 0.00 0.00 0.00 58 1007.7
20260901013524 71 304 1.0 4.0 0.00 0.00 0.00 58 1007.6
20260901013018 71 300 2.0 5.0 0.00 0.00 0.00 58 1007.6
20260901012538 71 292 2.0 6.0 0.00 0.00 0.00 58 1007.6
20260901012019 72 280 2.0 5.0 0.00 0.00 0.00 57 1007.6
20260901011521 72 294 2.0 6.0 0.00 0.00 0.00 56 1007.7
20260901011019 73 288 2.0 4.0 0.00 0.00 0.00 55 1007.7
20260901010518 73 279 2.0 5.0 0.00 0.00 0.00 55 1007.8
20260901010019 73 283 2.0 4.0 0.00 0.00 0.00 55 1007.7
20260901005516 74 280 2.0 7.0 0.00 0.00 0.00 55 1007.7
20260901005016 75 273 2.0 7.0 0.00 0.00 0.00 53 1007.7
20260901004518 76 282 1.0 2.0 0.00 0.00 0.00 52 1007.7
20260901004018 76 317 1.0 3.0 0.00 0.00 0.00 51 1007.7
20260901003519 76 304 2.0 7.0 0.00 0.00 0.00 50 1007.7
20260901003016 76 339 2.0 4.0 0.00 0.00 0.00 50 1007.8
20260901002516 77 305 1.0 6.0 0.00 0.00 0.00 50 1007.8
20260901002039 77 319 2.0 5.0 0.00 0.00 0.00 49 1007.9
20260901001516 77 317 2.0 4.0 0.00 0.00 0.00 48 1007.9
20260901001022 77 314 1.0 6.0 0.00 0.00 0.00 48 1007.9
20260901000516 77 343 2.0 5.0 0.00 0.00 0.00 49 1007.9
20260901000017 77 312 1.0 3.0 0.00 0.00 0.00 48 1008.0
20260831235519 77 340 2.0 4.0 0.00 0.00 0.00 48 1008.1
20260831235017 77 349 1.0 5.0 0.00 0.00 0.00 49 1008.1
20260831234517 77 0 2.0 6.0 0.00 0.00 0.00 48 1008.2
20260831234018 77 319 1.0 4.0 0.00 0.00 0.00 48 1008.3
20260831233518 77 341 2.0 8.0 0.00 0.00 0.00 48 1008.3
20260831233017 77 316 1.0 3.0 0.00 0.00 0.00 48 1008.3
20260831232517 77 358 2.0 8.0 0.00 0.00 0.00 47 1008.3
20260831232037 77 348 2.0 4.0 0.00 0.00 0.00 47 1008.3
20260831231518 77 303 2.0 5.0 0.00 0.00 0.00 48 1008.4
20260831231020 77 287 2.0 4.0 0.00 0.00 0.00 46 1008.5
20260831230518 77 290 1.0 3.0 0.00 0.00 0.00 46 1008.5
20260831230024 77 348 1.0 4.0 0.00 0.00 0.00 45 1008.5
20260831225522 77 359 1.0 4.0 0.00 0.00 0.00 46 1008.6
20260831225020 77 1 3.0 7.0 0.00 0.00 0.00 47 1008.7
20260831224518 77 348 1.0 4.0 0.00 0.00 0.00 47 1008.7
20260831224018 78 357 2.0 5.0 0.00 0.00 0.00 46 1008.8
20260831223540 77 299 1.0 4.0 0.00 0.00 0.00 46 1008.8
20260831223020 77 346 2.0 6.0 0.00 0.00 0.00 47 1008.8
20260831222518 77 348 2.0 5.0 0.00 0.00 0.00 47 1008.9
20260831222019 78 299 2.0 4.0 0.00 0.00 0.00 46 1008.9
20260831221519 78 358 2.0 4.0 0.00 0.00 0.00 47 1009.0
20260831221042 78 344 1.0 4.0 0.00 0.00 0.00 46 1009.1
20260831220518 77 351 2.0 4.0 0.00 0.00 0.00 46 1009.2
20260831220019 77 315 1.0 6.0 0.00 0.00 0.00 47 1009.2
20260831215522 77 339 2.0 6.0 0.00 0.00 0.00 47 1009.2
20260831215059 77 300 2.0 7.0 0.00 0.00 0.00 49 1009.3
20260831214519 78 333 2.0 4.0 0.00 0.00 0.00 47 1009.4
20260831214019 78 336 2.0 7.0 0.00 0.00 0.00 46 1009.4
20260831213516 77 322 1.0 4.0 0.00 0.00 0.00 47 1009.5
20260831213017 77 354 2.0 5.0 0.00 0.00 0.00 48 1009.5
20260831212520 77 311 2.0 4.0 0.00 0.00 0.00 48 1009.5
20260831212017 76 350 2.0 5.0 0.00 0.00 0.00 49 1009.6
20260831211519 76 339 2.0 5.0 0.00 0.00 0.00 49 1009.7
20260831211016 76 333 2.0 4.0 0.00 0.00 0.00 50 1009.7
20260831210518 76 313 2.0 4.0 0.00 0.00 0.00 50 1009.8
20260831210016 75 325 1.0 5.0 0.00 0.00 0.00 51 1009.9
20260831205517 75 314 2.0 6.0 0.00 0.00 0.00 52 1009.9
20260831205016 75 267 2.0 7.0 0.00 0.00 0.00 51 1010.0
20260831204523 75 298 2.0 6.0 0.00 0.00 0.00 52 1010.0
20260831204057 75 304 2.0 5.0 0.00 0.00 0.00 52 1010.1
20260831203538 75 316 2.0 5.0 0.00 0.00 0.00 51 1010.2
20260831203017 75 287 2.0 6.0 0.00 0.00 0.00 52 1010.2
20260831202518 75 319 2.0 7.0 0.00 0.00 0.00 51 1010.3
20260831202017 75 358 1.0 5.0 0.00 0.00 0.00 51 1010.4
20260831201518 75 326 1.0 4.0 0.00 0.00 0.00 50 1010.5
20260831201017 74 349 2.0 4.0 0.00 0.00 0.00 51 1010.5
20260831200517 73 265 1.0 5.0 0.00 0.00 0.00 52 1010.6
20260831200021 73 303 1.0 4.0 0.00 0.00 0.00 53 1010.6
20260831195517 73 308 2.0 5.0 0.00 0.00 0.00 53 1010.7
20260831195019 72 15 1.0 4.0 0.00 0.00 0.00 53 1010.8
20260831194517 72 299 1.0 4.0 0.00 0.00 0.00 53 1010.9
20260831194017 73 339 2.0 5.0 0.00 0.00 0.00 54 1011.0
20260831193538 73 315 1.0 5.0 0.00 0.00 0.00 53 1011.0
20260831193019 72 290 1.0 4.0 0.00 0.00 0.00 53 1011.1
20260831192543 71 62 1.0 4.0 0.00 0.00 0.00 55 1011.2
20260831192018 71 360 3.0 6.0 0.00 0.00 0.00 55 1011.2
20260831191559 70 29 1.0 3.0 0.00 0.00 0.00 56 1011.2
20260831191018 70 76 3.0 8.0 0.00 0.00 0.00 57 1011.3
20260831190519 70 77 2.0 7.0 0.00 0.00 0.00 57 1011.4
20260831185518 69 70 4.0 9.0 0.00 0.00 0.00 59 1011.5
20260831185019 70 77 3.0 9.0 0.00 0.00 0.00 59 1011.5
20260831184518 71 49 2.0 6.0 0.00 0.00 0.00 57 1011.6
20260831184020 71 6 2.0 5.0 0.00 0.00 0.00 56 1011.7
20260831183518 71 13 1.0 5.0 0.00 0.00 0.00 57 1011.8
20260831183018 70 355 2.0 5.0 0.00 0.00 0.00 59 1011.9
20260831182519 69 286 2.0 5.0 0.00 0.00 0.00 63 1011.9
20260831182025 68 307 2.0 5.0 0.00 0.00 0.00 64 1011.9
20260831181524 67 323 2.0 5.0 0.00 0.00 0.00 65 1012.0
20260831181017 67 199 2.0 4.0 0.00 0.00 0.00 67 1012.0
20260831180519 66 63 3.0 7.0 0.00 0.00 0.00 68 1012.1
20260831180017 66 88 4.0 9.0 0.00 0.00 0.00 68 1012.1
20260831175517 65 87 3.0 5.0 0.00 0.00 0.00 69 1012.2
20260831175017 65 79 4.0 9.0 0.00 0.00 0.00 69 1012.3
20260831174523 65 85 3.0 6.0 0.00 0.00 0.00 69 1012.3
20260831174018 64 124 3.0 6.0 0.00 0.00 0.00 71 1012.4
20260831173617 64 69 4.0 9.0 0.00 0.00 0.00 71 1012.4
20260831173021 64 77 5.0 8.0 0.00 0.00 0.00 71 1012.4
20260831172537 64 72 4.0 8.0 0.00 0.00 0.00 71 1012.4
20260831172017 63 91 2.0 7.0 0.00 0.00 0.00 72 1012.5
20260831171517 63 78 3.0 7.0 0.00 0.00 0.00 73 1012.5
20260831171018 63 74 3.0 6.0 0.00 0.00 0.00 74 1012.6
20260831170527 63 84 4.0 7.0 0.00 0.00 0.00 74 1012.7
20260831170018 63 102 3.0 7.0 0.00 0.00 0.00 74 1012.6
20260831165537 62 90 3.0 6.0 0.00 0.00 0.00 75 1012.6
20260831165058 62 70 3.0 6.0 0.00 0.00 0.00 76 1012.7
20260831164518 62 63 4.0 7.0 0.00 0.00 0.00 76 1012.7
20260831164037 62 65 4.0 7.0 0.00 0.00 0.00 77 1012.9
20260831163606 62 76 4.0 7.0 0.00 0.00 0.00 77 1012.9
20260831163021 62 80 3.0 7.0 0.00 0.00 0.00 77 1013.0
20260831162521 62 80 3.0 6.0 0.00 0.00 0.00 77 1013.0
20260831162023 61 85 2.0 5.0 0.00 0.00 0.00 78 1013.1
20260831161517 61 67 3.0 7.0 0.00 0.00 0.00 79 1013.1
20260831161041 61 74 3.0 8.0 0.00 0.00 0.00 79 1013.1
20260831160518 61 70 5.0 9.0 0.00 0.00 0.00 80 1013.0
20260831160043 61 70 4.0 7.0 0.00 0.00 0.00 79 1013.1
20260831155518 61 68 2.0 6.0 0.00 0.00 0.00 79 1013.2
20260831155021 60 77 3.0 7.0 0.00 0.00 0.00 80 1013.2
20260831154518 60 68 3.0 7.0 0.00 0.00 0.00 81 1013.3
20260831154038 60 69 4.0 8.0 0.00 0.00 0.00 83 1013.3
20260831153518 60 79 4.0 7.0 0.00 0.00 0.00 83 1013.3
20260831153018 60 74 3.0 7.0 0.00 0.00 0.00 82 1013.4
20260831152518 60 79 2.0 7.0 0.00 0.00 0.00 82 1013.4
20260831152018 60 61 3.0 7.0 0.00 0.00 0.00 83 1013.4
20260831151522 59 74 2.0 6.0 0.00 0.00 0.00 83 1013.4
20260831151018 59 78 0.0 2.0 0.00 0.00 0.00 86 1013.4
20260831150538 58 325 1.0 4.0 0.00 0.00 0.00 87 1013.4
20260831150019 58 351 1.0 4.0 0.00 0.00 0.00 89 1013.4
20260831145520 57 322 0.0 2.0 0.00 0.00 0.00 89 1013.4
20260831145019 57 271 0.0 1.0 0.00 0.00 0.00 89 1013.4
20260831144538 57 328 1.0 4.0 0.00 0.00 0.00 90 1013.4
20260831144017 57 332 0.0 2.0 0.00 0.00 0.00 92 1013.4
20260831143518 57 299 0.0 2.0 0.00 0.00 0.00 92 1013.4
20260831143017 56 327 0.0 2.0 0.00 0.00 0.00 93 1013.3
20260831142517 56 328 0.0 2.0 0.00 0.00 0.00 93 1013.3
20260831142020 56 231 0.0 1.0 0.00 0.00 0.00 94 1013.3
20260831141517 55 273 0.0 1.0 0.00 0.00 0.00 94 1013.3
20260831141036 55 304 0.0 2.0 0.00 0.00 0.00 94 1013.3
20260831140521 55 308 0.0 2.0 0.00 0.00 0.00 94 1013.2
20260831140036 55 304 0.0 2.0 0.00 0.00 0.00 94 1013.2
20260831135517 55 238 0.0 1.0 0.00 0.00 0.00 94 1013.2
20260831135037 55 280 0.0 2.0 0.00 0.00 0.00 94 1013.1
20260831134517 55 292 0.0 2.0 0.00 0.00 0.00 93 1013.1
20260831134017 55 294 1.0 2.0 0.00 0.00 0.00 93 1013.1
20260831133521 55 294 1.0 2.0 0.00 0.00 0.00 93 1013.1
20260831133036 55 287 1.0 2.0 0.00 0.00 0.00 93 1013.1
20260831132517 55 299 1.0 2.0 0.00 0.00 0.00 93 1013.1
20260831132017 55 292 1.0 2.0 0.00 0.00 0.00 93 1013.2
20260831131521 55 286 0.0 1.0 0.00 0.00 0.00 93 1013.2
20260831131017 55 301 0.0 1.0 0.00 0.00 0.00 93 1013.2
20260831130519 55 264 0.0 1.0 0.00 0.00 0.00 93 1013.2
20260831130017 55 284 1.0 2.0 0.00 0.00 0.00 93 1013.2
20260831125517 55 238 0.0 1.0 0.00 0.00 0.00 93 1013.1
20260831125018 55 257 0.0 1.0 0.00 0.00 0.00 93 1013.2
20260831124517 55 257 0.0 1.0 0.00 0.00 0.00 93 1013.3
20260831124017 55 256 0.0 1.0 0.00 0.00 0.00 92 1013.4
20260831123517 55 288 0.0 1.0 0.00 0.00 0.00 92 1013.4
20260831123018 55 293 1.0 2.0 0.00 0.00 0.00 91 1013.4
20260831122518 55 288 0.0 1.0 0.00 0.00 0.00 91 1013.4
20260831122020 56 272 0.0 2.0 0.00 0.00 0.00 91 1013.5
20260831121519 56 283 0.0 2.0 0.00 0.00 0.00 91 1013.5
20260831121018 56 332 0.0 1.0 0.00 0.00 0.00 91 1013.5
20260831120558 56 283 0.0 1.0 0.00 0.00 0.00 91 1013.6
20260831120019 56 273 0.0 1.0 0.00 0.00 0.00 90 1013.6
20260831115522 56 294 0.0 2.0 0.00 0.00 0.00 90 1013.7
20260831115040 56 275 0.0 2.0 0.00 0.00 0.00 90 1013.8
20260831114520 56 287 1.0 2.0 0.00 0.00 0.00 90 1013.8
20260831114022 56 307 1.0 2.0 0.00 0.00 0.00 90 1013.9
20260831113518 56 302 0.0 1.0 0.00 0.00 0.00 90 1014.0
20260831113020 56 298 0.0 1.0 0.00 0.00 0.00 90 1014.0
20260831112521 56 280 0.0 2.0 0.00 0.00 0.00 90 1014.0
20260831112016 56 275 0.0 2.0 0.00 0.00 0.00 90 1014.1
20260831111520 56 263 0.0 2.0 0.00 0.00 0.00 90 1014.0
20260831111016 56 281 0.0 2.0 0.00 0.00 0.00 90 1014.0
20260831110536 56 286 0.0 2.0 0.00 0.00 0.00 89 1014.0
20260831110016 56 274 0.0 1.0 0.00 0.00 0.00 89 1014.0
20260831105516 56 275 1.0 2.0 0.00 0.00 0.00 89 1014.0
20260831105016 56 297 1.0 2.0 0.00 0.00 0.00 89 1014.1
20260831104517 56 302 1.0 2.0 0.00 0.00 0.00 89 1014.1
20260831104017 56 315 0.0 1.0 0.00 0.00 0.00 89 1014.1